星链-35818(STARLINK-35818)

导读

STARLINK-35818是美国SpaceX星链星座的一员,于2025年11月19日发射入轨,归属星链互联网卫星网络,星链旨在为全球提供高速低延迟宽带互联网服务。该卫星延续星链设计思路,依托大规模星座组网,服务偏远地区通信、移动网络接入等场景,是星链星座扩容计划的组成部分。

基本信息
目录编号:
66540
目录名称:
STARLINK-35818
国际标识:
2025-265AA
轨道中心:
EARTH
卫星名称:
星链-35818
卫星全名:
星链-35818(STARLINK-35818)
卫星状态:
在轨 (已飞行206 天)
发射日期:
2025-11-19 UTC
国别 :
美国 (US)
星等 :
--
轨道信息
数据来源 国际轨道数据
星历时间: 2026-06-12T11:24:07+0800
1天前
查看轨道信息
半长轴: 6861.158km
偏心率: 0.0003206
轨道倾角: 42.996°
近地点辐角 281.534°
升交点赤经 104.949°
平近点角 78.516°
近地点: 480.821km
远地点: 485.221km
周期: 94.266分钟
每日圈数: 15.275895
详细信息
固有亮度:
5
最大亮度:
2.5
卫星平台:
Starlink V1.0
覆盖范围:
全球
运营商:
太空探索技术公司
运营商所在国:
美国
制造商(研发单位):
太空探索技术公司
制造商所在国:
美国
使用方式:
暂无
卫星简介
Starlink 计划是 SpaceX 推出的全球卫星互联网项目,通过发射低轨道卫星,为全球尤其是偏远地区提供高速、低延迟的互联网服务。自 2019 年起,Starlink 已部署数千颗卫星,旨在缩小全球数字鸿沟,推动互联网普及。该项目还为军事、航空等行业提供通信支持,带来广泛经济效益。
2D轨道图
3D轨道图
轨道高度分析图
轨道倾角分析图
轨道综合分析图
查看轨道综合分析图